sat.trackr.live / text

‹ back to catalog

STARLINK-37962

NORAD 69693 · 2026-145S

PAYLOAD ACTIVE UNKNOWN

§ Identity

Operator
Country
US
Launch date
2026-06-25
Launch site
AFWTR
Launch vehicle
Mass (kg)
RCS (m²)

Purposes: comms

External: N2YO · Heavens-Above · Gunter

§ Orbital elements

Epoch: 2026-09-19T19:50:41.164512Z

Period
93.91 min
Inclination
97.2852°
Eccentricity
0.0001825
Mean motion
15.33444743 rev/d
Perigee alt
464.3 km
Apogee alt
466.8 km
Semi-major
6,843.7 km
B*
3.5367e-4
RAAN
109.5589°
Arg perigee
91.8938°
Mean anomaly
268.2514°
Rev number
1,344

§ Raw data

STARLINK-379621 69693U 26145S   26262.82686533  .00011360  00000+0  35367-3 0  99972 69693  97.2852 109.5589 0001825  91.8938 268.2514 15.33444743 13447

JSON: /api/v1/satellites/69693 · /tle

For live sub-satellite position, see the globe view (requires WebGL).

§ Visibility from observer

Set your observer location to see the next 7 days of passes ≥ 10°. The values pass through the URL so the page stays shareable.

No JS? Fill the form by hand. The geolocation button needs JavaScript.